Williston, ND

7:13 AM CDT on August 23, 2017 (GMT -0500)
Sloulin International

Weather History for KISN - August, 2012

Change the Weather History Date:

Tuesday, August 28, 2012

  Actual Average Record
Temperature  
Mean Temperature 77 °F 65 °F  
Max Temperature 98 °F 80 °F 100 °F (1996)
Min Temperature 56 °F 50 °F 34 °F (1988)
Degree Days  
Heating Degree Days 0 3  
Month to date heating degree days 24 39  
Since 1 June heating degree days 96 183  
Since 1 July heating degree days 25 63  
Cooling Degree Days 12 3  
Month to date cooling degree days 108 157  
Year to date cooling degree days 493 420  
Since 1 June cooling degree days 483 407  
Growing Degree Days 26 (Base 50)    
Moisture  
Dew Point 55 °F    
Average Humidity 52    
Maximum Humidity 86    
Minimum Humidity 18    
Precipitation  
Precipitation 0.00 in 0.04 in 0.68 in (1925)
Month to date precipitation 0.54 1.32  
Year to date precipitation 9.51 10.99  
Snow  
Snow 0.00 in - - ()
Month to date snowfall 0.0  
Since 1 June snowfall T  
Snow Depth 0.00 in    
Sea Level Pressure  
Sea Level Pressure 29.92 in    
Wind  
Wind Speed 4 mph (ESE)    
Max Wind Speed 13 mph    
Max Gust Speed 17 mph    
Visibility 10 miles    
Events      
T = Trace of Precipitation, MM = Missing Value Source: NWS Daily Summary

Daily Weather History Graph

Daily Weather History Graph

Search for Another Location

Airport or City:

Trip Planner

Search our weather history database for the weather conditions in past years. The results will help you decide how hot, cold, wet, or windy it might be!

Date:

Astronomy

Aug. 28, 2012 Rise Set
Actual Time 7:07 AM CDT 8:42 PM CDT
Civil Twilight 6:34 AM CDT 9:15 PM CDT
Nautical Twilight 5:54 AM CDT 9:54 PM CDT
Astronomical Twilight 5:11 AM CDT 10:37 PM CDT
Moon 6:54 PM CDT (8/28) 3:49 AM CDT (8/28)
Length of Visible Light 14h 40m
Length of Day
13h 35m
Waxing Gibbous, 90% of the Moon is Illuminated
Aug 28
Waxing Gibbous
Aug 31
Full
Sep 8
Last Quarter
Sep 15
New
Sep 22
First Quarter

Hourly Weather History & Observations

Time (CDT) Temp. Heat Index Dew Point Humidity Pressure Visibility Wind Dir Wind Speed Gust Speed Precip Events Conditions
12:52 AM 68.0 °F - 51.1 °F 55% 29.98 in 10.0 mi ENE 3.5 mph - N/A   Clear
1:52 AM 66.0 °F - 52.0 °F 60% 29.98 in 10.0 mi NE 5.8 mph - N/A   Clear
2:52 AM 63.0 °F - 53.1 °F 70% 29.97 in 10.0 mi NE 4.6 mph - N/A   Clear
3:52 AM 64.9 °F - 54.0 °F 68% 29.96 in 10.0 mi ENE 4.6 mph - N/A   Clear
4:52 AM 63.0 °F - 54.0 °F 72% 29.97 in 10.0 mi NE 3.5 mph - N/A   Clear
5:52 AM 60.1 °F - 54.0 °F 80% 29.98 in 10.0 mi Calm Calm - N/A   Clear
6:52 AM 57.0 °F - 53.1 °F 87% 29.99 in 10.0 mi NNW 3.5 mph - N/A   Clear
7:52 AM 60.1 °F - 54.0 °F 80% 29.98 in 10.0 mi Calm Calm - N/A   Clear
8:52 AM 64.0 °F - 55.9 °F 75% 30.01 in 10.0 mi SSW 3.5 mph - N/A   Clear
9:52 AM 69.1 °F - 57.0 °F 65% 29.99 in 10.0 mi SSE 10.4 mph - N/A   Clear
10:52 AM 73.0 °F - 57.9 °F 59% 29.99 in 10.0 mi SSE 6.9 mph - N/A   Clear
11:52 AM 78.8 °F - 59.0 °F 51% 29.99 in 10.0 mi SSE 6.9 mph - N/A   Clear
12:52 PM 82.9 °F 82.8 °F 59.0 °F 44% 29.94 in 10.0 mi SSE 9.2 mph - N/A   Clear
1:52 PM 88.0 °F 87.1 °F 59.0 °F 37% 29.91 in 10.0 mi SE 8.1 mph - N/A   Clear
2:52 PM 90.0 °F 89.1 °F 59.0 °F 35% 29.89 in 10.0 mi Variable 3.5 mph - N/A   Clear
3:52 PM 93.0 °F 92.0 °F 57.9 °F 31% 29.86 in 10.0 mi Variable 3.5 mph - N/A   Clear
4:52 PM 96.1 °F 94.1 °F 55.0 °F 25% 29.84 in 10.0 mi Calm Calm - N/A   Clear
5:52 PM 97.0 °F - 51.1 °F 21% 29.84 in 10.0 mi Calm Calm - N/A   Clear
6:52 PM 97.0 °F - 46.9 °F 18% 29.83 in 10.0 mi Calm Calm - N/A   Clear
7:52 PM 95.0 °F - 50.0 °F 22% 29.81 in 10.0 mi Calm Calm - N/A   Clear
8:52 PM 84.0 °F 83.8 °F 59.0 °F 43% 29.81 in 10.0 mi ESE 6.9 mph - N/A   Clear
9:52 PM 82.9 °F 82.6 °F 57.9 °F 42% 29.82 in 10.0 mi SE 9.2 mph - N/A   Clear
10:52 PM 79.0 °F - 60.1 °F 52% 29.81 in 10.0 mi ESE 4.6 mph - N/A   Clear
11:52 PM 80.1 °F 80.9 °F 60.1 °F 50% 29.80 in 10.0 mi SSE 3.5 mph - N/A   Clear